| time (UTC) | temp F | wind direction | speed MPH | gust MPH | rain 1hr in | rain 24hr in | rain mn in | humidity % | barometer mb |
| 20260506051003 | 50 | 0 | 0.0 | 0.0 | 0.00 | 0.09 | 0.09 | 76 | 1016.4 |
| 20260506050804 | 50 | 0 | 0.0 | 0.0 | 0.00 | 0.09 | 0.09 | 76 | 1016.4 |
| 20260506050604 | 50 | 289 | 0.0 | 3.0 | 0.00 | 0.09 | 0.09 | 75 | 1016.4 |
| 20260506050404 | 50 | 289 | 0.0 | 3.0 | 0.00 | 0.09 | 0.09 | 75 | 1016.3 |
| 20260506050204 | 50 | 289 | 0.0 | 3.0 | 0.00 | 0.09 | 0.09 | 75 | 1016.3 |
| 20260506045004 | 50 | 286 | 1.0 | 4.0 | 0.00 | 0.09 | 0.09 | 75 | 1016.1 |
| 20260506044804 | 50 | 286 | 1.0 | 4.0 | 0.00 | 0.09 | 0.09 | 74 | 1016.1 |
| 20260506044603 | 50 | 287 | 1.0 | 4.0 | 0.00 | 0.09 | 0.09 | 74 | 1016.1 |
| 20260506044425 | 50 | 287 | 1.0 | 4.0 | 0.00 | 0.09 | 0.09 | 74 | 1016.1 |
| 20260506044204 | 50 | 303 | 1.0 | 4.0 | 0.00 | 0.09 | 0.09 | 74 | 1016.0 |
| 20260506044025 | 50 | 307 | 1.0 | 4.0 | 0.00 | 0.09 | 0.09 | 74 | 1016.0 |
| 20260506043804 | 50 | 309 | 1.0 | 4.0 | 0.00 | 0.09 | 0.09 | 74 | 1016.0 |
| 20260506043625 | 50 | 311 | 1.0 | 4.0 | 0.00 | 0.09 | 0.09 | 74 | 1016.0 |
| 20260506043404 | 50 | 311 | 1.0 | 4.0 | 0.00 | 0.09 | 0.09 | 73 | 1016.0 |
| 20260506043204 | 50 | 300 | 1.0 | 5.0 | 0.00 | 0.09 | 0.09 | 73 | 1016.0 |
| 20260506043003 | 50 | 302 | 1.0 | 5.0 | 0.00 | 0.09 | 0.09 | 73 | 1015.9 |
| 20260506042805 | 50 | 302 | 2.0 | 5.0 | 0.00 | 0.09 | 0.09 | 73 | 1015.9 |
| 20260506042604 | 50 | 302 | 2.0 | 5.0 | 0.00 | 0.09 | 0.09 | 73 | 1015.9 |
| 20260506042425 | 50 | 302 | 2.0 | 5.0 | 0.00 | 0.09 | 0.09 | 73 | 1015.9 |
| 20260506042203 | 50 | 309 | 1.0 | 5.0 | 0.00 | 0.09 | 0.09 | 72 | 1015.9 |
| 20260506042004 | 50 | 308 | 1.0 | 5.0 | 0.00 | 0.09 | 0.09 | 72 | 1015.8 |
| 20260506041803 | 51 | 306 | 1.0 | 5.0 | 0.00 | 0.09 | 0.09 | 72 | 1015.8 |
| 20260506041604 | 51 | 307 | 1.0 | 5.0 | 0.00 | 0.09 | 0.09 | 72 | 1015.7 |
| 20260506041425 | 51 | 299 | 0.0 | 5.0 | 0.00 | 0.09 | 0.09 | 72 | 1015.7 |
| 20260506041204 | 51 | 281 | 0.0 | 3.0 | 0.00 | 0.09 | 0.09 | 72 | 1015.7 |
| 20260506041004 | 51 | 281 | 0.0 | 3.0 | 0.00 | 0.09 | 0.09 | 72 | 1015.7 |
| 20260506040803 | 51 | 284 | 0.0 | 3.0 | 0.00 | 0.09 | 0.09 | 72 | 1015.7 |
| 20260506040604 | 51 | 296 | 1.0 | 5.0 | 0.00 | 0.09 | 0.09 | 72 | 1015.7 |
| 20260506040404 | 51 | 296 | 1.0 | 5.0 | 0.00 | 0.09 | 0.09 | 72 | 1015.7 |
| 20260506040204 | 51 | 296 | 1.0 | 5.0 | 0.00 | 0.09 | 0.09 | 72 | 1015.6 |
| 20260506040004 | 51 | 294 | 1.0 | 5.0 | 0.00 | 0.09 | 0.09 | 72 | 1015.6 |
| 20260506035804 | 51 | 293 | 2.0 | 5.0 | 0.00 | 0.09 | 0.09 | 71 | 1015.6 |
| 20260506035603 | 51 | 288 | 1.0 | 5.0 | 0.00 | 0.09 | 0.09 | 71 | 1015.6 |
| 20260506035404 | 51 | 287 | 1.0 | 5.0 | 0.00 | 0.09 | 0.09 | 71 | 1015.5 |
| 20260506035225 | 51 | 287 | 1.0 | 4.0 | 0.00 | 0.09 | 0.09 | 71 | 1015.5 |
| 20260506035004 | 51 | 286 | 1.0 | 4.0 | 0.00 | 0.09 | 0.09 | 72 | 1015.5 |
| 20260506034804 | 51 | 285 | 1.0 | 4.0 | 0.00 | 0.09 | 0.09 | 72 | 1015.4 |
| 20260506034603 | 51 | 288 | 1.0 | 4.0 | 0.00 | 0.09 | 0.09 | 71 | 1015.4 |
| 20260506034404 | 51 | 290 | 1.0 | 4.0 | 0.00 | 0.09 | 0.09 | 71 | 1015.4 |
| 20260506034205 | 51 | 287 | 1.0 | 4.0 | 0.00 | 0.09 | 0.09 | 72 | 1015.4 |
| 20260506034004 | 51 | 289 | 1.0 | 4.0 | 0.00 | 0.09 | 0.09 | 71 | 1015.3 |
| 20260506033804 | 51 | 289 | 1.0 | 4.0 | 0.00 | 0.09 | 0.09 | 71 | 1015.3 |
| 20260506033604 | 51 | 290 | 1.0 | 4.0 | 0.00 | 0.09 | 0.09 | 71 | 1015.2 |
| 20260506033425 | 51 | 290 | 1.0 | 4.0 | 0.00 | 0.09 | 0.09 | 71 | 1015.2 |
| 20260506033204 | 51 | 291 | 1.0 | 4.0 | 0.00 | 0.09 | 0.09 | 71 | 1015.2 |
| 20260506033025 | 51 | 292 | 1.0 | 5.0 | 0.00 | 0.09 | 0.09 | 71 | 1015.2 |
| 20260506032825 | 51 | 294 | 1.0 | 7.0 | 0.00 | 0.09 | 0.09 | 71 | 1015.2 |
| 20260506032603 | 51 | 296 | 1.0 | 7.0 | 0.00 | 0.09 | 0.09 | 71 | 1015.2 |
| 20260506032403 | 51 | 296 | 1.0 | 7.0 | 0.00 | 0.09 | 0.09 | 71 | 1015.2 |
| 20260506032204 | 51 | 296 | 1.0 | 7.0 | 0.00 | 0.09 | 0.09 | 70 | 1015.1 |
| 20260506032004 | 51 | 295 | 0.0 | 7.0 | 0.00 | 0.09 | 0.09 | 71 | 1015.1 |
| 20260506031825 | 51 | 288 | 0.0 | 5.0 | 0.00 | 0.09 | 0.09 | 71 | 1015.1 |
| 20260506031625 | 52 | 288 | 1.0 | 5.0 | 0.00 | 0.09 | 0.09 | 71 | 1015.1 |
| 20260506031404 | 52 | 289 | 1.0 | 5.0 | 0.00 | 0.09 | 0.09 | 71 | 1015.0 |
| 20260506031203 | 52 | 289 | 1.0 | 5.0 | 0.00 | 0.09 | 0.09 | 70 | 1015.0 |
| 20260506031004 | 52 | 290 | 1.0 | 5.0 | 0.00 | 0.09 | 0.09 | 70 | 1014.9 |
| 20260506030804 | 52 | 289 | 1.0 | 4.0 | 0.00 | 0.09 | 0.09 | 70 | 1014.9 |
| 20260506030604 | 52 | 291 | 2.0 | 6.0 | 0.00 | 0.09 | 0.09 | 70 | 1014.9 |
| 20260506030404 | 52 | 292 | 2.0 | 6.0 | 0.00 | 0.09 | 0.09 | 70 | 1014.8 |
| 20260506030204 | 52 | 291 | 1.0 | 6.0 | 0.00 | 0.09 | 0.09 | 70 | 1014.8 |
| 20260506030004 | 52 | 294 | 1.0 | 6.0 | 0.00 | 0.09 | 0.09 | 70 | 1014.7 |
| 20260506025803 | 52 | 295 | 2.0 | 6.0 | 0.00 | 0.09 | 0.09 | 70 | 1014.7 |
| 20260506025625 | 52 | 292 | 1.0 | 5.0 | 0.00 | 0.09 | 0.09 | 70 | 1014.6 |
| 20260506025403 | 52 | 294 | 1.0 | 5.0 | 0.00 | 0.09 | 0.09 | 70 | 1014.6 |
| 20260506025204 | 52 | 295 | 1.0 | 5.0 | 0.00 | 0.09 | 0.09 | 70 | 1014.6 |
| 20260506025004 | 52 | 291 | 1.0 | 5.0 | 0.00 | 0.09 | 0.09 | 70 | 1014.5 |
| 20260506024804 | 52 | 294 | 0.0 | 3.0 | 0.00 | 0.09 | 0.09 | 70 | 1014.6 |
| 20260506024625 | 52 | 308 | 0.0 | 3.0 | 0.00 | 0.09 | 0.09 | 70 | 1014.5 |
| 20260506024404 | 52 | 293 | 0.0 | 1.0 | 0.00 | 0.09 | 0.09 | 70 | 1014.5 |
| 20260506024203 | 52 | 282 | 0.0 | 4.0 | 0.00 | 0.09 | 0.09 | 70 | 1014.4 |
| 20260506024004 | 52 | 289 | 0.0 | 5.0 | 0.00 | 0.09 | 0.09 | 70 | 1014.4 |
| 20260506023804 | 52 | 289 | 1.0 | 5.0 | 0.00 | 0.09 | 0.09 | 70 | 1014.4 |
| 20260506023604 | 52 | 298 | 1.0 | 5.0 | 0.00 | 0.09 | 0.09 | 70 | 1014.4 |
| 20260506023403 | 52 | 300 | 1.0 | 5.0 | 0.00 | 0.09 | 0.09 | 70 | 1014.3 |
| 20260506023204 | 52 | 302 | 1.0 | 5.0 | 0.00 | 0.09 | 0.09 | 70 | 1014.3 |
| 20260506023004 | 52 | 301 | 1.0 | 5.0 | 0.00 | 0.09 | 0.09 | 70 | 1014.3 |
| 20260506022825 | 52 | 304 | 1.0 | 5.0 | 0.00 | 0.09 | 0.09 | 70 | 1014.3 |
| 20260506022604 | 52 | 309 | 1.0 | 5.0 | 0.00 | 0.09 | 0.09 | 71 | 1014.2 |
| 20260506022404 | 52 | 312 | 1.0 | 5.0 | 0.00 | 0.09 | 0.09 | 70 | 1014.2 |
| 20260506022204 | 52 | 310 | 1.0 | 5.0 | 0.00 | 0.09 | 0.09 | 70 | 1014.1 |
| 20260506022003 | 52 | 312 | 1.0 | 5.0 | 0.00 | 0.09 | 0.09 | 70 | 1014.0 |
| 20260506021804 | 52 | 313 | 1.0 | 5.0 | 0.00 | 0.09 | 0.09 | 70 | 1014.0 |
| 20260506021625 | 52 | 304 | 1.0 | 7.0 | 0.00 | 0.09 | 0.09 | 70 | 1014.0 |
| 20260506021403 | 52 | 295 | 2.0 | 7.0 | 0.00 | 0.09 | 0.09 | 70 | 1014.0 |
| 20260506021204 | 52 | 295 | 1.0 | 7.0 | 0.00 | 0.09 | 0.09 | 70 | 1014.0 |
| 20260506021004 | 52 | 292 | 1.0 | 7.0 | 0.00 | 0.09 | 0.09 | 71 | 1014.0 |
| 20260506020804 | 52 | 292 | 1.0 | 7.0 | 0.00 | 0.09 | 0.09 | 71 | 1014.0 |
| 20260506020604 | 52 | 300 | 1.0 | 7.0 | 0.00 | 0.09 | 0.09 | 71 | 1013.9 |
| 20260506020403 | 52 | 305 | 1.0 | 4.0 | 0.00 | 0.09 | 0.09 | 71 | 1013.8 |
| 20260506020225 | 52 | 306 | 1.0 | 4.0 | 0.00 | 0.09 | 0.09 | 70 | 1013.8 |
| 20260506020025 | 52 | 308 | 1.0 | 6.0 | 0.00 | 0.09 | 0.09 | 70 | 1013.7 |
| 20260506015803 | 52 | 313 | 2.0 | 6.0 | 0.00 | 0.09 | 0.09 | 70 | 1013.7 |
| 20260506015604 | 52 | 314 | 1.0 | 6.0 | 0.00 | 0.09 | 0.09 | 70 | 1013.7 |
| 20260506015404 | 52 | 312 | 1.0 | 6.0 | 0.00 | 0.09 | 0.09 | 70 | 1013.7 |
| 20260506015204 | 52 | 312 | 1.0 | 6.0 | 0.00 | 0.09 | 0.09 | 70 | 1013.7 |
| 20260506015024 | 52 | 308 | 1.0 | 7.0 | 0.00 | 0.09 | 0.09 | 70 | 1013.7 |
| 20260506014804 | 52 | 292 | 2.0 | 7.0 | 0.00 | 0.09 | 0.09 | 70 | 1013.7 |
| 20260506014604 | 53 | 289 | 2.0 | 7.0 | 0.00 | 0.09 | 0.09 | 70 | 1013.6 |
| 20260506014404 | 53 | 290 | 2.0 | 7.0 | 0.00 | 0.09 | 0.09 | 70 | 1013.6 |
| 20260506014224 | 53 | 291 | 2.0 | 7.0 | 0.00 | 0.09 | 0.09 | 70 | 1013.5 |
| 20260506014004 | 53 | 296 | 2.0 | 7.0 | 0.00 | 0.09 | 0.09 | 70 | 1013.5 |
| 20260506013803 | 53 | 298 | 2.0 | 7.0 | 0.00 | 0.09 | 0.09 | 69 | 1013.5 |
| 20260506013603 | 53 | 301 | 1.0 | 6.0 | 0.00 | 0.09 | 0.09 | 70 | 1013.5 |
| 20260506013404 | 53 | 299 | 1.0 | 6.0 | 0.00 | 0.09 | 0.09 | 70 | 1013.5 |
| 20260506013204 | 53 | 296 | 2.0 | 6.0 | 0.00 | 0.09 | 0.09 | 70 | 1013.4 |
| 20260506013004 | 53 | 296 | 2.0 | 7.0 | 0.00 | 0.09 | 0.09 | 69 | 1013.4 |
| 20260506012804 | 53 | 298 | 2.0 | 7.0 | 0.00 | 0.09 | 0.09 | 69 | 1013.4 |
| 20260506012604 | 53 | 300 | 3.0 | 9.0 | 0.00 | 0.09 | 0.09 | 69 | 1013.3 |
| 20260506012404 | 54 | 300 | 3.0 | 9.0 | 0.00 | 0.09 | 0.09 | 69 | 1013.3 |
| 20260506012203 | 54 | 299 | 3.0 | 9.0 | 0.00 | 0.09 | 0.09 | 69 | 1013.4 |
| 20260506012025 | 54 | 296 | 3.0 | 9.0 | 0.00 | 0.09 | 0.09 | 69 | 1013.3 |
| 20260506011804 | 54 | 295 | 3.0 | 9.0 | 0.00 | 0.09 | 0.09 | 68 | 1013.3 |
| 20260506011604 | 54 | 298 | 3.0 | 9.0 | 0.00 | 0.09 | 0.09 | 69 | 1013.3 |
| 20260506011403 | 54 | 305 | 3.0 | 9.0 | 0.00 | 0.09 | 0.09 | 69 | 1013.3 |
| 20260506011204 | 54 | 306 | 3.0 | 9.0 | 0.00 | 0.09 | 0.09 | 68 | 1013.3 |
| 20260506011025 | 54 | 316 | 3.0 | 12.0 | 0.00 | 0.09 | 0.09 | 69 | 1013.3 |
| 20260506010803 | 54 | 320 | 3.0 | 12.0 | 0.00 | 0.09 | 0.09 | 68 | 1013.3 |
| 20260506010603 | 54 | 318 | 3.0 | 12.0 | 0.00 | 0.09 | 0.09 | 69 | 1013.3 |
| 20260506010404 | 54 | 316 | 2.0 | 12.0 | 0.00 | 0.09 | 0.09 | 68 | 1013.3 |
| 20260506010203 | 54 | 309 | 2.0 | 12.0 | 0.00 | 0.09 | 0.09 | 68 | 1013.3 |
| 20260506010004 | 54 | 294 | 3.0 | 11.0 | 0.00 | 0.09 | 0.09 | 68 | 1013.2 |
| 20260506005804 | 54 | 295 | 3.0 | 11.0 | 0.00 | 0.09 | 0.09 | 68 | 1013.2 |
| 20260506005603 | 54 | 294 | 3.0 | 11.0 | 0.00 | 0.09 | 0.09 | 69 | 1013.3 |
| 20260506005425 | 54 | 295 | 4.0 | 11.0 | 0.00 | 0.09 | 0.09 | 68 | 1013.3 |
| 20260506005204 | 54 | 299 | 4.0 | 11.0 | 0.00 | 0.09 | 0.09 | 68 | 1013.2 |
| 20260506005003 | 54 | 304 | 4.0 | 10.0 | 0.00 | 0.09 | 0.09 | 68 | 1013.1 |
| 20260506004804 | 54 | 302 | 4.0 | 10.0 | 0.00 | 0.09 | 0.09 | 69 | 1013.2 |
| 20260506004604 | 54 | 302 | 3.0 | 10.0 | 0.00 | 0.09 | 0.09 | 69 | 1013.3 |
| 20260506004404 | 54 | 301 | 3.0 | 10.0 | 0.00 | 0.09 | 0.09 | 67 | 1013.2 |
| 20260506004203 | 54 | 300 | 2.0 | 8.0 | 0.00 | 0.09 | 0.09 | 67 | 1013.2 |
| 20260506004004 | 55 | 302 | 2.0 | 8.0 | 0.00 | 0.09 | 0.09 | 67 | 1013.2 |
| 20260506003804 | 54 | 302 | 2.0 | 8.0 | 0.00 | 0.09 | 0.09 | 68 | 1013.1 |
| 20260506003603 | 54 | 304 | 2.0 | 8.0 | 0.00 | 0.09 | 0.09 | 69 | 1013.2 |
| 20260506003404 | 54 | 302 | 2.0 | 7.0 | 0.00 | 0.09 | 0.09 | 69 | 1013.2 |
| 20260506003204 | 54 | 302 | 3.0 | 7.0 | 0.00 | 0.09 | 0.09 | 68 | 1013.3 |
| 20260506003003 | 54 | 298 | 3.0 | 7.0 | 0.00 | 0.09 | 0.09 | 68 | 1013.3 |
| 20260506002804 | 54 | 300 | 3.0 | 9.0 | 0.00 | 0.09 | 0.09 | 68 | 1013.2 |
| 20260506002604 | 54 | 301 | 2.0 | 9.0 | 0.00 | 0.09 | 0.09 | 69 | 1013.3 |
| 20260506002404 | 54 | 305 | 2.0 | 9.0 | 0.00 | 0.09 | 0.09 | 69 | 1013.2 |
| 20260506002204 | 54 | 306 | 2.0 | 9.0 | 0.00 | 0.09 | 0.09 | 68 | 1013.2 |
| 20260506002004 | 55 | 308 | 2.0 | 9.0 | 0.00 | 0.09 | 0.09 | 69 | 1013.3 |
| 20260506001804 | 55 | 306 | 2.0 | 8.0 | 0.00 | 0.09 | 0.09 | 69 | 1013.2 |
| 20260506001604 | 55 | 301 | 2.0 | 8.0 | 0.00 | 0.09 | 0.09 | 69 | 1013.2 |
| 20260506001403 | 54 | 298 | 1.0 | 8.0 | 0.00 | 0.09 | 0.09 | 69 | 1013.2 |
| 20260506001225 | 54 | 293 | 1.0 | 8.0 | 0.00 | 0.09 | 0.09 | 70 | 1013.2 |
| 20260506001025 | 54 | 287 | 2.0 | 8.0 | 0.00 | 0.09 | 0.09 | 71 | 1013.2 |
| 20260506000825 | 54 | 292 | 2.0 | 8.0 | 0.00 | 0.09 | 0.09 | 70 | 1013.2 |
| 20260506000604 | 54 | 294 | 2.0 | 8.0 | 0.00 | 0.09 | 0.09 | 70 | 1013.2 |
| 20260506000403 | 54 | 291 | 3.0 | 8.0 | 0.00 | 0.09 | 0.09 | 70 | 1013.2 |
| 20260506000205 | 54 | 292 | 3.0 | 8.0 | 0.00 | 0.09 | 0.09 | 69 | 1013.2 |
| 20260506000004 | 54 | 301 | 2.0 | 8.0 | 0.00 | 0.09 | 0.09 | 69 | 1013.2 |
| 20260505235803 | 54 | 296 | 3.0 | 9.0 | 0.00 | 0.09 | 0.09 | 69 | 1013.2 |
| 20260505235603 | 54 | 295 | 3.0 | 9.0 | 0.00 | 0.09 | 0.09 | 68 | 1013.2 |
| 20260505235404 | 55 | 296 | 3.0 | 9.0 | 0.00 | 0.09 | 0.09 | 69 | 1013.1 |
| 20260505235203 | 55 | 294 | 4.0 | 9.0 | 0.00 | 0.09 | 0.09 | 69 | 1013.2 |
| 20260505235004 | 55 | 291 | 4.0 | 9.0 | 0.00 | 0.09 | 0.09 | 68 | 1013.1 |
| 20260505234803 | 55 | 292 | 3.0 | 9.0 | 0.00 | 0.09 | 0.09 | 68 | 1013.1 |
| 20260505234625 | 55 | 293 | 3.0 | 9.0 | 0.00 | 0.09 | 0.09 | 68 | 1013.1 |
| 20260505234404 | 55 | 298 | 4.0 | 10.0 | 0.00 | 0.09 | 0.09 | 68 | 1013.1 |
| 20260505234204 | 55 | 300 | 4.0 | 10.0 | 0.00 | 0.09 | 0.09 | 67 | 1013.1 |
| 20260505234025 | 56 | 301 | 4.0 | 10.0 | 0.00 | 0.09 | 0.09 | 66 | 1013.1 |
| 20260505233825 | 56 | 304 | 3.0 | 10.0 | 0.00 | 0.09 | 0.09 | 66 | 1013.1 |
| 20260505233603 | 56 | 309 | 3.0 | 10.0 | 0.00 | 0.09 | 0.09 | 66 | 1013.0 |
| 20260505233424 | 56 | 309 | 3.0 | 10.0 | 0.00 | 0.09 | 0.09 | 66 | 1013.0 |
| 20260505233204 | 56 | 310 | 3.0 | 10.0 | 0.00 | 0.09 | 0.09 | 67 | 1013.0 |
| 20260505233003 | 56 | 308 | 2.0 | 10.0 | 0.00 | 0.09 | 0.09 | 67 | 1013.0 |
| 20260505232804 | 56 | 305 | 3.0 | 10.0 | 0.00 | 0.09 | 0.09 | 67 | 1013.0 |
| 20260505232604 | 56 | 298 | 3.0 | 9.0 | 0.00 | 0.09 | 0.09 | 66 | 1013.0 |
| 20260505232425 | 56 | 296 | 3.0 | 8.0 | 0.00 | 0.09 | 0.09 | 64 | 1013.0 |
| 20260505232203 | 56 | 295 | 3.0 | 8.0 | 0.00 | 0.09 | 0.09 | 64 | 1012.9 |
| 20260505232004 | 56 | 296 | 2.0 | 8.0 | 0.00 | 0.09 | 0.09 | 64 | 1013.0 |
| 20260505231804 | 56 | 302 | 2.0 | 7.0 | 0.00 | 0.09 | 0.09 | 65 | 1012.9 |
| 20260505231603 | 56 | 299 | 2.0 | 11.0 | 0.00 | 0.09 | 0.09 | 66 | 1012.9 |
| 20260505231405 | 55 | 300 | 3.0 | 12.0 | 0.00 | 0.09 | 0.09 | 67 | 1012.9 |
| 20260505231225 | 55 | 299 | 3.0 | 12.0 | 0.00 | 0.09 | 0.09 | 66 | 1012.9 |
| 20260505231004 | 55 | 297 | 3.0 | 12.0 | 0.00 | 0.09 | 0.09 | 66 | 1013.0 |
| 20260505230804 | 55 | 295 | 3.0 | 12.0 | 0.00 | 0.09 | 0.09 | 65 | 1013.0 |
| 20260505230604 | 55 | 297 | 3.0 | 12.0 | 0.00 | 0.09 | 0.09 | 66 | 1013.0 |
| 20260505230425 | 55 | 293 | 2.0 | 12.0 | 0.00 | 0.09 | 0.09 | 65 | 1013.0 |
| 20260505230225 | 55 | 292 | 2.0 | 10.0 | 0.00 | 0.09 | 0.09 | 66 | 1013.0 |
| 20260505230004 | 55 | 297 | 2.0 | 7.0 | 0.00 | 0.09 | 0.09 | 65 | 1013.0 |
| 20260505225804 | 55 | 300 | 2.0 | 7.0 | 0.00 | 0.09 | 0.09 | 65 | 1013.0 |
| 20260505225604 | 55 | 300 | 2.0 | 7.0 | 0.00 | 0.09 | 0.09 | 65 | 1013.1 |
| 20260505225403 | 55 | 307 | 1.0 | 7.0 | 0.00 | 0.09 | 0.09 | 65 | 1013.1 |
| 20260505225204 | 55 | 292 | 2.0 | 8.0 | 0.00 | 0.09 | 0.09 | 65 | 1013.1 |
| 20260505225004 | 55 | 289 | 2.0 | 8.0 | 0.00 | 0.09 | 0.09 | 65 | 1013.1 |
| 20260505224804 | 55 | 279 | 2.0 | 9.0 | 0.00 | 0.09 | 0.09 | 63 | 1013.2 |
| 20260505224603 | 55 | 282 | 2.0 | 9.0 | 0.00 | 0.09 | 0.09 | 63 | 1013.1 |
| 20260505224403 | 55 | 287 | 3.0 | 9.0 | 0.00 | 0.09 | 0.09 | 64 | 1013.1 |
| 20260505224203 | 56 | 291 | 3.0 | 9.0 | 0.00 | 0.09 | 0.09 | 64 | 1013.2 |
| 20260505224004 | 55 | 294 | 3.0 | 9.0 | 0.00 | 0.09 | 0.09 | 63 | 1013.2 |
| 20260505223803 | 56 | 297 | 3.0 | 9.0 | 0.00 | 0.09 | 0.09 | 63 | 1013.2 |
| 20260505223603 | 56 | 301 | 3.0 | 9.0 | 0.00 | 0.09 | 0.09 | 63 | 1013.2 |
| 20260505223404 | 56 | 305 | 2.0 | 9.0 | 0.00 | 0.09 | 0.09 | 63 | 1013.2 |
| 20260505223225 | 56 | 299 | 2.0 | 9.0 | 0.00 | 0.09 | 0.09 | 64 | 1013.2 |
| 20260505223004 | 56 | 294 | 3.0 | 9.0 | 0.00 | 0.09 | 0.09 | 63 | 1013.3 |
| 20260505222804 | 56 | 294 | 3.0 | 9.0 | 0.00 | 0.09 | 0.09 | 63 | 1013.3 |
| 20260505222605 | 56 | 293 | 2.0 | 9.0 | 0.00 | 0.09 | 0.09 | 63 | 1013.3 |
| 20260505222424 | 55 | 292 | 3.0 | 9.0 | 0.00 | 0.09 | 0.09 | 63 | 1013.3 |
| 20260505222204 | 56 | 297 | 2.0 | 8.0 | 0.00 | 0.09 | 0.09 | 64 | 1013.3 |
| 20260505222004 | 56 | 302 | 2.0 | 8.0 | 0.00 | 0.09 | 0.09 | 63 | 1013.4 |
| 20260505221804 | 56 | 302 | 2.0 | 8.0 | 0.00 | 0.09 | 0.09 | 62 | 1013.4 |
| 20260505221625 | 56 | 300 | 2.0 | 8.0 | 0.00 | 0.09 | 0.09 | 62 | 1013.4 |
| 20260505221425 | 56 | 303 | 2.0 | 8.0 | 0.00 | 0.09 | 0.09 | 60 | 1013.3 |
| 20260505221203 | 56 | 301 | 2.0 | 8.0 | 0.00 | 0.09 | 0.09 | 60 | 1013.3 |
| 20260505221004 | 56 | 301 | 2.0 | 8.0 | 0.00 | 0.09 | 0.09 | 58 | 1013.3 |
| 20260505220804 | 56 | 300 | 3.0 | 8.0 | 0.00 | 0.09 | 0.09 | 57 | 1013.3 |
| 20260505220604 | 56 | 298 | 3.0 | 8.0 | 0.00 | 0.09 | 0.09 | 57 | 1013.3 |
| 20260505220404 | 56 | 299 | 3.0 | 8.0 | 0.00 | 0.09 | 0.09 | 57 | 1013.3 |
| 20260505220204 | 56 | 300 | 3.0 | 9.0 | 0.00 | 0.09 | 0.09 | 57 | 1013.3 |
| 20260505220004 | 56 | 300 | 3.0 | 9.0 | 0.00 | 0.09 | 0.09 | 56 | 1013.3 |
| 20260505215803 | 56 | 298 | 3.0 | 9.0 | 0.00 | 0.09 | 0.09 | 57 | 1013.3 |
| 20260505215604 | 56 | 297 | 3.0 | 9.0 | 0.00 | 0.09 | 0.09 | 56 | 1013.3 |
| 20260505215404 | 56 | 295 | 3.0 | 9.0 | 0.00 | 0.09 | 0.09 | 58 | 1013.3 |
| 20260505215225 | 56 | 290 | 2.0 | 8.0 | 0.00 | 0.09 | 0.09 | 56 | 1013.3 |
| 20260505215004 | 57 | 287 | 3.0 | 8.0 | 0.00 | 0.09 | 0.09 | 56 | 1013.3 |
| 20260505214803 | 57 | 286 | 3.0 | 8.0 | 0.00 | 0.09 | 0.09 | 59 | 1013.4 |
| 20260505214603 | 56 | 288 | 3.0 | 8.0 | 0.00 | 0.09 | 0.09 | 58 | 1013.3 |
| 20260505214404 | 56 | 286 | 2.0 | 8.0 | 0.00 | 0.09 | 0.09 | 58 | 1013.4 |
| 20260505214204 | 56 | 288 | 2.0 | 7.0 | 0.00 | 0.09 | 0.09 | 55 | 1013.4 |
| 20260505214003 | 56 | 290 | 1.0 | 7.0 | 0.00 | 0.09 | 0.09 | 59 | 1013.4 |
| 20260505213825 | 56 | 297 | 1.0 | 6.0 | 0.00 | 0.09 | 0.09 | 60 | 1013.4 |
| 20260505213604 | 56 | 259 | 0.0 | 5.0 | 0.00 | 0.09 | 0.09 | 61 | 1013.4 |
| 20260505213425 | 55 | 271 | 1.0 | 6.0 | 0.00 | 0.09 | 0.09 | 63 | 1013.5 |
| 20260505213204 | 55 | 277 | 1.0 | 7.0 | 0.00 | 0.09 | 0.09 | 63 | 1013.5 |
| 20260505213004 | 55 | 277 | 1.0 | 7.0 | 0.00 | 0.09 | 0.09 | 63 | 1013.6 |
| 20260505212804 | 55 | 281 | 1.0 | 7.0 | 0.00 | 0.09 | 0.09 | 64 | 1013.6 |
| 20260505212604 | 55 | 284 | 1.0 | 7.0 | 0.00 | 0.09 | 0.09 | 63 | 1013.7 |
| 20260505212404 | 55 | 292 | 1.0 | 5.0 | 0.00 | 0.09 | 0.09 | 65 | 1013.7 |
| 20260505212204 | 55 | 304 | 0.0 | 5.0 | 0.00 | 0.09 | 0.09 | 68 | 1013.8 |
| 20260505212004 | 54 | 304 | 0.0 | 5.0 | 0.00 | 0.09 | 0.09 | 66 | 1013.8 |
| 20260505211804 | 54 | 253 | 0.0 | 4.0 | 0.00 | 0.09 | 0.09 | 66 | 1013.8 |
| 20260505211604 | 54 | 252 | 0.0 | 4.0 | 0.00 | 0.09 | 0.09 | 64 | 1013.8 |
| 20260505211403 | 54 | 252 | 0.0 | 4.0 | 0.00 | 0.09 | 0.09 | 66 | 1013.9 |
| 20260505211224 | 54 | 261 | 0.0 | 4.0 | 0.00 | 0.09 | 0.09 | 66 | 1013.9 |
| 20260505211004 | 54 | 279 | 1.0 | 6.0 | 0.00 | 0.09 | 0.09 | 66 | 1013.9 |
| 20260505210804 | 54 | 291 | 2.0 | 9.0 | 0.00 | 0.09 | 0.09 | 66 | 1014.0 |
| 20260505210603 | 54 | 292 | 2.0 | 10.0 | 0.00 | 0.09 | 0.09 | 66 | 1014.0 |
| 20260505210404 | 54 | 294 | 3.0 | 10.0 | 0.00 | 0.09 | 0.09 | 66 | 1013.9 |
| 20260505210204 | 54 | 294 | 4.0 | 10.0 | 0.00 | 0.09 | 0.09 | 65 | 1014.0 |
| 20260505210004 | 54 | 293 | 4.0 | 10.0 | 0.00 | 0.09 | 0.09 | 67 | 1014.0 |
| 20260505205804 | 54 | 286 | 3.0 | 11.0 | 0.00 | 0.09 | 0.09 | 67 | 1014.0 |
| 20260505205603 | 54 | 272 | 3.0 | 11.0 | 0.00 | 0.09 | 0.09 | 67 | 1014.0 |
| 20260505205424 | 54 | 266 | 3.0 | 11.0 | 0.00 | 0.09 | 0.09 | 66 | 1014.0 |
| 20260505205203 | 55 | 255 | 3.0 | 11.0 | 0.00 | 0.09 | 0.09 | 68 | 1014.0 |
| 20260505205004 | 55 | 250 | 2.0 | 11.0 | 0.00 | 0.09 | 0.09 | 65 | 1014.0 |
| 20260505204804 | 55 | 254 | 2.0 | 10.0 | 0.00 | 0.09 | 0.09 | 65 | 1013.9 |
| 20260505204604 | 55 | 268 | 1.0 | 8.0 | 0.00 | 0.09 | 0.09 | 65 | 1013.9 |
| 20260505204404 | 55 | 268 | 0.0 | 6.0 | 0.00 | 0.09 | 0.09 | 64 | 1013.9 |
| 20260505204204 | 55 | 259 | 0.0 | 4.0 | 0.00 | 0.09 | 0.09 | 63 | 1013.9 |
| 20260505204024 | 55 | 263 | 0.0 | 1.0 | 0.00 | 0.09 | 0.09 | 64 | 1014.0 |
| 20260505203803 | 55 | 0 | 0.0 | 0.0 | 0.00 | 0.09 | 0.09 | 67 | 1014.0 |
| 20260505203604 | 55 | 306 | 0.0 | 3.0 | 0.00 | 0.09 | 0.09 | 66 | 1013.9 |
| 20260505203425 | 55 | 306 | 0.0 | 3.0 | 0.00 | 0.09 | 0.09 | 69 | 1013.9 |
| 20260505203203 | 55 | 306 | 0.0 | 3.0 | 0.00 | 0.09 | 0.09 | 68 | 1013.9 |
| 20260505203004 | 55 | 306 | 0.0 | 3.0 | 0.00 | 0.09 | 0.09 | 68 | 1013.9 |
| 20260505202803 | 56 | 305 | 0.0 | 3.0 | 0.00 | 0.09 | 0.09 | 67 | 1013.9 |
| 20260505202604 | 55 | 308 | 0.0 | 3.0 | 0.00 | 0.09 | 0.09 | 69 | 1013.9 |
| 20260505202404 | 55 | 317 | 1.0 | 5.0 | 0.00 | 0.09 | 0.09 | 71 | 1013.9 |
| 20260505202204 | 55 | 322 | 1.0 | 5.0 | 0.00 | 0.09 | 0.09 | 69 | 1013.9 |
| 20260505202025 | 55 | 322 | 1.0 | 5.0 | 0.00 | 0.09 | 0.09 | 66 | 1013.9 |
| 20260505201803 | 55 | 310 | 1.0 | 7.0 | 0.00 | 0.09 | 0.09 | 65 | 1014.0 |
| 20260505201604 | 55 | 309 | 1.0 | 7.0 | 0.00 | 0.09 | 0.09 | 63 | 1014.0 |
| 20260505201405 | 55 | 299 | 1.0 | 7.0 | 0.00 | 0.09 | 0.09 | 63 | 1014.0 |
| 20260505201204 | 55 | 281 | 1.0 | 7.0 | 0.00 | 0.09 | 0.09 | 64 | 1013.9 |
| 20260505201025 | 54 | 285 | 1.0 | 7.0 | 0.00 | 0.09 | 0.09 | 65 | 1014.0 |
| 20260505200804 | 54 | 286 | 1.0 | 4.0 | 0.00 | 0.09 | 0.09 | 68 | 1014.0 |
| 20260505200603 | 53 | 287 | 1.0 | 4.0 | 0.00 | 0.09 | 0.09 | 66 | 1014.0 |
| 20260505200403 | 54 | 287 | 1.0 | 4.0 | 0.00 | 0.09 | 0.09 | 65 | 1014.1 |
| 20260505200224 | 54 | 288 | 1.0 | 6.0 | 0.00 | 0.09 | 0.09 | 66 | 1014.1 |
| 20260505200004 | 54 | 284 | 1.0 | 6.0 | 0.00 | 0.09 | 0.09 | 67 | 1014.1 |
| 20260505195803 | 54 | 282 | 1.0 | 6.0 | 0.00 | 0.09 | 0.09 | 68 | 1014.1 |
| 20260505195604 | 54 | 282 | 1.0 | 6.0 | 0.00 | 0.09 | 0.09 | 65 | 1014.1 |
| 20260505195404 | 54 | 284 | 1.0 | 6.0 | 0.00 | 0.09 | 0.09 | 66 | 1014.1 |
| 20260505195203 | 54 | 300 | 1.0 | 5.0 | 0.00 | 0.09 | 0.09 | 70 | 1014.1 |
| 20260505195024 | 54 | 304 | 0.0 | 5.0 | 0.00 | 0.09 | 0.09 | 70 | 1014.2 |
| 20260505194803 | 54 | 296 | 1.0 | 5.0 | 0.00 | 0.09 | 0.09 | 71 | 1014.2 |
| 20260505194604 | 54 | 291 | 1.0 | 7.0 | 0.00 | 0.09 | 0.09 | 71 | 1014.2 |
| 20260505194403 | 53 | 290 | 1.0 | 7.0 | 0.00 | 0.09 | 0.09 | 72 | 1014.2 |
| 20260505194204 | 53 | 285 | 1.0 | 7.0 | 0.00 | 0.09 | 0.09 | 73 | 1014.3 |
| 20260505194004 | 53 | 283 | 2.0 | 7.0 | 0.00 | 0.09 | 0.09 | 72 | 1014.3 |
| 20260505193804 | 53 | 283 | 2.0 | 7.0 | 0.00 | 0.09 | 0.09 | 70 | 1014.3 |
| 20260505193605 | 53 | 282 | 1.0 | 7.0 | 0.00 | 0.09 | 0.09 | 70 | 1014.2 |
| 20260505193404 | 53 | 282 | 1.0 | 7.0 | 0.00 | 0.09 | 0.09 | 70 | 1014.3 |
| 20260505193205 | 53 | 280 | 1.0 | 7.0 | 0.00 | 0.09 | 0.09 | 70 | 1014.3 |
| 20260505193003 | 53 | 280 | 0.0 | 6.0 | 0.00 | 0.09 | 0.09 | 72 | 1014.3 |
| 20260505192804 | 53 | 269 | 0.0 | 3.0 | 0.00 | 0.09 | 0.09 | 70 | 1014.3 |
| 20260505192604 | 53 | 275 | 0.0 | 4.0 | 0.00 | 0.09 | 0.09 | 70 | 1014.4 |
| 20260505192403 | 53 | 284 | 0.0 | 4.0 | 0.00 | 0.09 | 0.09 | 71 | 1014.4 |
| 20260505192204 | 53 | 284 | 0.0 | 4.0 | 0.00 | 0.09 | 0.09 | 68 | 1014.3 |
| 20260505192004 | 53 | 286 | 0.0 | 5.0 | 0.00 | 0.09 | 0.09 | 72 | 1014.3 |
| 20260505191804 | 53 | 283 | 1.0 | 5.0 | 0.00 | 0.09 | 0.09 | 74 | 1014.3 |
| 20260505191604 | 53 | 287 | 1.0 | 5.0 | 0.00 | 0.09 | 0.09 | 74 | 1014.3 |
| 20260505191425 | 53 | 285 | 1.0 | 5.0 | 0.00 | 0.09 | 0.09 | 76 | 1014.3 |
| 20260505191203 | 52 | 297 | 1.0 | 9.0 | 0.00 | 0.09 | 0.09 | 77 | 1014.3 |
| 20260505191004 | 52 | 299 | 1.0 | 9.0 | 0.00 | 0.09 | 0.09 | 73 | 1014.3 |
| 20260505190804 | 52 | 301 | 1.0 | 9.0 | 0.00 | 0.09 | 0.09 | 73 | 1014.3 |
| 20260505190603 | 52 | 297 | 1.0 | 9.0 | 0.00 | 0.09 | 0.09 | 74 | 1014.3 |
| 20260505190404 | 52 | 291 | 2.0 | 9.0 | 0.00 | 0.09 | 0.09 | 75 | 1014.3 |
| 20260505190204 | 52 | 280 | 1.0 | 6.0 | 0.00 | 0.09 | 0.09 | 75 | 1014.3 |
| 20260505190025 | 51 | 275 | 1.0 | 6.0 | 0.00 | 0.09 | 0.09 | 74 | 1014.3 |
| 20260505185824 | 51 | 266 | 1.0 | 6.0 | 0.00 | 0.09 | 0.09 | 74 | 1014.3 |
| 20260505185625 | 52 | 264 | 1.0 | 6.0 | 0.00 | 0.09 | 0.09 | 78 | 1014.3 |
| 20260505185404 | 52 | 258 | 1.0 | 6.0 | 0.00 | 0.09 | 0.09 | 81 | 1014.3 |
| 20260505185225 | 52 | 249 | 1.0 | 5.0 | 0.00 | 0.09 | 0.09 | 80 | 1014.3 |
| 20260505185003 | 52 | 249 | 1.0 | 5.0 | 0.00 | 0.09 | 0.09 | 78 | 1014.3 |
| 20260505184804 | 52 | 274 | 0.0 | 3.0 | 0.00 | 0.09 | 0.09 | 81 | 1014.3 |
| 20260505184603 | 51 | 277 | 0.0 | 2.0 | 0.00 | 0.09 | 0.09 | 81 | 1014.3 |
| 20260505184404 | 51 | 279 | 0.0 | 3.0 | 0.00 | 0.09 | 0.09 | 84 | 1014.3 |
| 20260505184205 | 50 | 284 | 0.0 | 3.0 | 0.00 | 0.09 | 0.09 | 81 | 1014.3 |
| 20260505184025 | 50 | 269 | 1.0 | 3.0 | 0.00 | 0.09 | 0.09 | 80 | 1014.4 |
| 20260505183803 | 50 | 230 | 1.0 | 3.0 | 0.00 | 0.09 | 0.09 | 79 | 1014.3 |
| 20260505183625 | 51 | 262 | 1.0 | 3.0 | 0.00 | 0.09 | 0.09 | 79 | 1014.3 |
| 20260505183424 | 51 | 245 | 1.0 | 3.0 | 0.00 | 0.09 | 0.09 | 81 | 1014.4 |
| 20260505183225 | 51 | 202 | 1.0 | 3.0 | 0.00 | 0.09 | 0.09 | 82 | 1014.4 |
| 20260505183004 | 50 | 282 | 0.0 | 3.0 | 0.00 | 0.09 | 0.09 | 83 | 1014.3 |
| 20260505182825 | 50 | 304 | 0.0 | 3.0 | 0.00 | 0.09 | 0.09 | 83 | 1014.3 |
| 20260505182604 | 50 | 0 | 0.0 | 0.0 | 0.00 | 0.09 | 0.09 | 84 | 1014.3 |
| 20260505182404 | 50 | 0 | 0.0 | 0.0 | 0.00 | 0.09 | 0.09 | 84 | 1014.3 |
| 20260505182204 | 50 | 0 | 0.0 | 0.0 | 0.00 | 0.09 | 0.09 | 84 | 1014.3 |
| 20260505182004 | 49 | 270 | 0.0 | 3.0 | 0.00 | 0.09 | 0.09 | 84 | 1014.3 |
| 20260505181803 | 49 | 277 | 1.0 | 4.0 | 0.00 | 0.09 | 0.09 | 86 | 1014.3 |
| 20260505181603 | 49 | 279 | 1.0 | 4.0 | 0.00 | 0.09 | 0.09 | 86 | 1014.3 |
| 20260505181404 | 48 | 280 | 1.0 | 4.0 | 0.00 | 0.09 | 0.09 | 86 | 1014.3 |
| 20260505181204 | 48 | 280 | 2.0 | 4.0 | 0.00 | 0.09 | 0.09 | 85 | 1014.3 |
| 20260505181025 | 49 | 285 | 2.0 | 5.0 | 0.00 | 0.09 | 0.09 | 86 | 1014.3 |
| 20260505180804 | 48 | 285 | 1.0 | 5.0 | 0.00 | 0.09 | 0.09 | 86 | 1014.3 |
| 20260505180604 | 49 | 291 | 1.0 | 5.0 | 0.00 | 0.09 | 0.09 | 88 | 1014.3 |
| 20260505180404 | 49 | 299 | 1.0 | 5.0 | 0.00 | 0.09 | 0.09 | 88 | 1014.3 |
| 20260505180204 | 49 | 308 | 1.0 | 5.0 | 0.00 | 0.09 | 0.09 | 89 | 1014.2 |
| 20260505180004 | 49 | 312 | 1.0 | 4.0 | 0.00 | 0.09 | 0.09 | 90 | 1014.3 |
| 20260505175803 | 49 | 312 | 1.0 | 4.0 | 0.00 | 0.09 | 0.09 | 89 | 1014.2 |
| 20260505175604 | 49 | 311 | 1.0 | 4.0 | 0.00 | 0.09 | 0.09 | 89 | 1014.3 |
| 20260505175425 | 49 | 306 | 1.0 | 4.0 | 0.00 | 0.09 | 0.09 | 89 | 1014.2 |
| 20260505175225 | 49 | 299 | 0.0 | 4.0 | 0.00 | 0.09 | 0.09 | 89 | 1014.1 |
| 20260505175003 | 49 | 0 | 0.0 | 0.0 | 0.00 | 0.09 | 0.09 | 89 | 1014.1 |
| 20260505174803 | 49 | 0 | 0.0 | 0.0 | 0.00 | 0.09 | 0.09 | 87 | 1014.0 |
| 20260505174604 | 49 | 0 | 0.0 | 0.0 | 0.00 | 0.09 | 0.09 | 87 | 1014.0 |
| 20260505174404 | 49 | 0 | 0.0 | 0.0 | 0.00 | 0.09 | 0.09 | 86 | 1014.0 |
| 20260505174225 | 49 | 0 | 0.0 | 0.0 | 0.00 | 0.09 | 0.09 | 86 | 1014.0 |
| 20260505174004 | 49 | 289 | 0.0 | 2.0 | 0.00 | 0.09 | 0.09 | 88 | 1014.0 |
| 20260505173803 | 48 | 293 | 0.0 | 2.0 | 0.00 | 0.09 | 0.09 | 89 | 1013.9 |
| 20260505173603 | 48 | 303 | 1.0 | 3.0 | 0.00 | 0.09 | 0.09 | 89 | 1013.9 |
| 20260505173404 | 48 | 303 | 1.0 | 3.0 | 0.00 | 0.09 | 0.09 | 88 | 1013.9 |
| 20260505173203 | 48 | 303 | 1.0 | 3.0 | 0.00 | 0.09 | 0.09 | 88 | 1013.8 |
| 20260505173004 | 48 | 306 | 0.0 | 3.0 | 0.00 | 0.09 | 0.09 | 90 | 1013.9 |
| 20260505172804 | 48 | 325 | 0.0 | 3.0 | 0.00 | 0.09 | 0.09 | 90 | 1013.9 |
| 20260505172604 | 48 | 291 | 0.0 | 3.0 | 0.00 | 0.09 | 0.09 | 91 | 1013.9 |
| 20260505172404 | 47 | 291 | 0.0 | 3.0 | 0.00 | 0.09 | 0.09 | 91 | 1013.9 |
| 20260505172203 | 47 | 292 | 1.0 | 4.0 | 0.00 | 0.09 | 0.09 | 91 | 1013.8 |
| 20260505172004 | 47 | 291 | 1.0 | 4.0 | 0.00 | 0.09 | 0.09 | 91 | 1013.8 |
| 20260505171804 | 47 | 293 | 1.0 | 6.0 | 0.00 | 0.09 | 0.09 | 91 | 1013.8 |
| 20260505171604 | 47 | 293 | 1.0 | 6.0 | 0.00 | 0.09 | 0.09 | 91 | 1013.8 |
| 20260505171404 | 47 | 293 | 1.0 | 6.0 | 0.00 | 0.09 | 0.09 | 92 | 1013.8 |
| 20260505171224 | 47 | 293 | 1.0 | 6.0 | 0.00 | 0.09 | 0.09 | 92 | 1013.8 |
| 20260505171003 | 47 | 288 | 1.0 | 6.0 | 0.00 | 0.09 | 0.09 | 92 | 1013.7 |
| 20260505170803 | 47 | 279 | 0.0 | 3.0 | 0.00 | 0.09 | 0.09 | 93 | 1013.6 |
| 20260505170604 | 47 | 279 | 0.0 | 3.0 | 0.00 | 0.09 | 0.09 | 93 | 1013.6 |
| 20260505170425 | 47 | 279 | 0.0 | 3.0 | 0.00 | 0.09 | 0.09 | 93 | 1013.7 |
| 20260505170204 | 47 | 280 | 0.0 | 3.0 | 0.00 | 0.09 | 0.09 | 93 | 1013.7 |
| 20260505170025 | 47 | 288 | 0.0 | 3.0 | 0.00 | 0.09 | 0.09 | 93 | 1013.6 |
| 20260505165804 | 47 | 299 | 0.0 | 3.0 | 0.00 | 0.09 | 0.09 | 94 | 1013.6 |
| 20260505165604 | 47 | 300 | 0.0 | 3.0 | 0.00 | 0.09 | 0.09 | 94 | 1013.6 |
| 20260505165424 | 47 | 300 | 0.0 | 3.0 | 0.00 | 0.09 | 0.09 | 94 | 1013.5 |
| 20260505165204 | 47 | 300 | 0.0 | 3.0 | 0.00 | 0.09 | 0.09 | 94 | 1013.5 |
| 20260505165004 | 47 | 300 | 0.0 | 3.0 | 0.00 | 0.09 | 0.09 | 94 | 1013.5 |
| 20260505164825 | 47 | 0 | 0.0 | 0.0 | 0.00 | 0.09 | 0.09 | 94 | 1013.5 |
| 20260505164603 | 47 | 0 | 0.0 | 0.0 | 0.00 | 0.09 | 0.09 | 94 | 1013.5 |
| 20260505164403 | 47 | 0 | 0.0 | 0.0 | 0.00 | 0.09 | 0.09 | 94 | 1013.4 |
| 20260505164204 | 47 | 0 | 0.0 | 0.0 | 0.00 | 0.09 | 0.09 | 94 | 1013.4 |
| 20260505164004 | 47 | 0 | 0.0 | 0.0 | 0.00 | 0.09 | 0.09 | 95 | 1013.4 |
| 20260505163804 | 46 | 0 | 0.0 | 0.0 | 0.00 | 0.09 | 0.09 | 95 | 1013.4 |
| 20260505163624 | 46 | 0 | 0.0 | 0.0 | 0.00 | 0.09 | 0.09 | 95 | 1013.4 |
| 20260505163403 | 46 | 0 | 0.0 | 0.0 | 0.00 | 0.09 | 0.09 | 95 | 1013.4 |
| 20260505163204 | 46 | 0 | 0.0 | 0.0 | 0.00 | 0.09 | 0.09 | 95 | 1013.4 |
| 20260505163003 | 46 | 250 | 0.0 | 3.0 | 0.00 | 0.09 | 0.09 | 95 | 1013.4 |
| 20260505162803 | 46 | 250 | 0.0 | 3.0 | 0.00 | 0.09 | 0.09 | 95 | 1013.3 |
| 20260505162625 | 46 | 250 | 0.0 | 3.0 | 0.00 | 0.09 | 0.09 | 95 | 1013.3 |
| 20260505162404 | 46 | 250 | 0.0 | 3.0 | 0.00 | 0.09 | 0.09 | 95 | 1013.3 |
| 20260505162225 | 46 | 250 | 0.0 | 3.0 | 0.00 | 0.09 | 0.09 | 95 | 1013.3 |
| 20260505162003 | 46 | 0 | 0.0 | 0.0 | 0.00 | 0.09 | 0.09 | 95 | 1013.3 |
| 20260505161804 | 46 | 0 | 0.0 | 0.0 | 0.00 | 0.09 | 0.09 | 95 | 1013.3 |
| 20260505161604 | 46 | 0 | 0.0 | 0.0 | 0.00 | 0.09 | 0.09 | 95 | 1013.3 |
| 20260505161403 | 46 | 0 | 0.0 | 0.0 | 0.00 | 0.09 | 0.09 | 95 | 1013.3 |
| 20260505161204 | 46 | 283 | 0.0 | 2.0 | 0.00 | 0.09 | 0.09 | 95 | 1013.2 |
| 20260505161024 | 46 | 283 | 0.0 | 2.0 | 0.00 | 0.09 | 0.09 | 95 | 1013.2 |
| 20260505160803 | 46 | 283 | 0.0 | 2.0 | 0.00 | 0.09 | 0.09 | 95 | 1013.2 |
| 20260505160604 | 46 | 283 | 0.0 | 2.0 | 0.00 | 0.09 | 0.09 | 95 | 1013.1 |
| 20260505160403 | 46 | 287 | 0.0 | 2.0 | 0.00 | 0.09 | 0.09 | 95 | 1013.0 |
| 20260505160204 | 46 | 288 | 0.0 | 2.0 | 0.00 | 0.09 | 0.09 | 95 | 1013.0 |
| 20260505153204 | 46 | 0 | 0.0 | 0.0 | 0.03 | 0.09 | 0.09 | 96 | 1012.7 |
| 20260505153024 | 46 | 0 | 0.0 | 0.0 | 0.03 | 0.09 | 0.09 | 96 | 1012.8 |
| 20260505152804 | 46 | 0 | 0.0 | 0.0 | 0.04 | 0.09 | 0.09 | 96 | 1012.8 |
| 20260505152625 | 46 | 0 | 0.0 | 0.0 | 0.04 | 0.09 | 0.09 | 96 | 1012.8 |
| 20260505152404 | 46 | 0 | 0.0 | 0.0 | 0.05 | 0.09 | 0.09 | 96 | 1012.8 |
| 20260505152225 | 46 | 0 | 0.0 | 0.0 | 0.05 | 0.09 | 0.09 | 96 | 1012.7 |
| 20260505152004 | 46 | 0 | 0.0 | 0.0 | 0.06 | 0.09 | 0.09 | 96 | 1012.7 |
| 20260505151804 | 46 | 0 | 0.0 | 0.0 | 0.06 | 0.09 | 0.09 | 96 | 1012.7 |
| 20260505151603 | 46 | 0 | 0.0 | 0.0 | 0.06 | 0.09 | 0.09 | 96 | 1012.7 |
| 20260505151403 | 45 | 0 | 0.0 | 0.0 | 0.06 | 0.09 | 0.09 | 96 | 1012.7 |
| 20260505151203 | 45 | 0 | 0.0 | 0.0 | 0.06 | 0.09 | 0.09 | 96 | 1012.7 |
| 20260505151003 | 45 | 0 | 0.0 | 0.0 | 0.06 | 0.09 | 0.09 | 96 | 1012.7 |
| 20260505150804 | 46 | 0 | 0.0 | 0.0 | 0.06 | 0.09 | 0.09 | 96 | 1012.7 |
| 20260505150603 | 46 | 0 | 0.0 | 0.0 | 0.06 | 0.09 | 0.09 | 96 | 1012.6 |
| 20260505150403 | 46 | 0 | 0.0 | 0.0 | 0.06 | 0.09 | 0.09 | 96 | 1012.6 |
| 20260505150203 | 45 | 0 | 0.0 | 0.0 | 0.06 | 0.09 | 0.09 | 96 | 1012.6 |
| 20260505140604 | 46 | 285 | 0.0 | 2.0 | 0.00 | 0.02 | 0.02 | 96 | 1012.2 |
| 20260505140403 | 46 | 280 | 0.0 | 3.0 | 0.00 | 0.02 | 0.02 | 96 | 1012.2 |
| 20260505140203 | 46 | 281 | 0.0 | 3.0 | 0.00 | 0.02 | 0.02 | 96 | 1012.2 |
| 20260505130204 | 45 | 0 | 0.0 | 0.0 | 0.00 | 0.02 | 0.02 | 96 | 1011.8 |
| 20260505125024 | 45 | 0 | 0.0 | 0.0 | 0.00 | 0.02 | 0.02 | 96 | 1011.9 |
| 20260505124803 | 45 | 0 | 0.0 | 0.0 | 0.00 | 0.02 | 0.02 | 96 | 1011.9 |
| 20260505124604 | 45 | 0 | 0.0 | 0.0 | 0.00 | 0.02 | 0.02 | 96 | 1011.9 |
| 20260505124404 | 45 | 0 | 0.0 | 0.0 | 0.00 | 0.02 | 0.02 | 96 | 1011.8 |
| 20260505124204 | 45 | 0 | 0.0 | 0.0 | 0.00 | 0.02 | 0.02 | 96 | 1011.9 |
| 20260505124024 | 45 | 0 | 0.0 | 0.0 | 0.00 | 0.02 | 0.02 | 96 | 1011.9 |
| 20260505123804 | 45 | 0 | 0.0 | 0.0 | 0.00 | 0.02 | 0.02 | 96 | 1011.9 |
| 20260505123603 | 45 | 0 | 0.0 | 0.0 | 0.00 | 0.02 | 0.02 | 96 | 1012.0 |
| 20260505123403 | 45 | 0 | 0.0 | 0.0 | 0.00 | 0.02 | 0.02 | 96 | 1011.9 |
| 20260505123203 | 44 | 0 | 0.0 | 0.0 | 0.00 | 0.02 | 0.02 | 96 | 1012.0 |
| 20260505123004 | 44 | 0 | 0.0 | 0.0 | 0.00 | 0.02 | 0.02 | 96 | 1012.0 |
| 20260505122804 | 44 | 0 | 0.0 | 0.0 | 0.00 | 0.02 | 0.02 | 96 | 1012.0 |
| 20260505122625 | 44 | 0 | 0.0 | 0.0 | 0.00 | 0.02 | 0.02 | 96 | 1012.0 |
| 20260505122403 | 44 | 0 | 0.0 | 0.0 | 0.00 | 0.02 | 0.02 | 96 | 1011.9 |
| 20260505122204 | 44 | 0 | 0.0 | 0.0 | 0.00 | 0.02 | 0.02 | 96 | 1011.9 |
| 20260505122004 | 44 | 0 | 0.0 | 0.0 | 0.00 | 0.02 | 0.02 | 96 | 1011.9 |
| 20260505121803 | 44 | 0 | 0.0 | 0.0 | 0.00 | 0.02 | 0.02 | 96 | 1011.9 |
| 20260505121604 | 44 | 0 | 0.0 | 0.0 | 0.00 | 0.02 | 0.02 | 96 | 1011.9 |
| 20260505121403 | 44 | 0 | 0.0 | 0.0 | 0.00 | 0.02 | 0.02 | 96 | 1011.9 |
| 20260505121225 | 44 | 0 | 0.0 | 0.0 | 0.00 | 0.02 | 0.02 | 95 | 1011.9 |
| 20260505121003 | 44 | 0 | 0.0 | 0.0 | 0.00 | 0.02 | 0.02 | 95 | 1011.8 |
| 20260505120804 | 44 | 0 | 0.0 | 0.0 | 0.00 | 0.02 | 0.02 | 95 | 1011.8 |
| 20260505120603 | 44 | 0 | 0.0 | 0.0 | 0.00 | 0.02 | 0.02 | 95 | 1011.8 |
| 20260505120404 | 44 | 0 | 0.0 | 0.0 | 0.00 | 0.02 | 0.02 | 95 | 1011.9 |
| 20260505120204 | 44 | 0 | 0.0 | 0.0 | 0.00 | 0.02 | 0.02 | 95 | 1011.8 |
| 20260505120004 | 44 | 0 | 0.0 | 0.0 | 0.00 | 0.02 | 0.02 | 95 | 1011.8 |
| 20260505115803 | 44 | 0 | 0.0 | 0.0 | 0.00 | 0.02 | 0.02 | 96 | 1011.8 |
| 20260505115603 | 44 | 0 | 0.0 | 0.0 | 0.00 | 0.02 | 0.02 | 96 | 1011.7 |
| 20260505115404 | 44 | 0 | 0.0 | 0.0 | 0.00 | 0.02 | 0.02 | 96 | 1011.7 |
| 20260505115203 | 44 | 0 | 0.0 | 0.0 | 0.00 | 0.02 | 0.02 | 95 | 1011.8 |
| 20260505115003 | 44 | 0 | 0.0 | 0.0 | 0.00 | 0.02 | 0.02 | 95 | 1011.8 |
| 20260505114804 | 44 | 0 | 0.0 | 0.0 | 0.00 | 0.02 | 0.02 | 95 | 1011.8 |
| 20260505114603 | 44 | 95 | 0.0 | 2.0 | 0.00 | 0.02 | 0.02 | 95 | 1011.9 |
| 20260505114403 | 44 | 98 | 0.0 | 2.0 | 0.00 | 0.02 | 0.02 | 95 | 1011.9 |
| 20260505114204 | 45 | 98 | 0.0 | 2.0 | 0.00 | 0.02 | 0.02 | 95 | 1011.9 |
| 20260505114003 | 45 | 75 | 0.0 | 2.0 | 0.00 | 0.02 | 0.02 | 96 | 1011.9 |
| 20260505113803 | 45 | 75 | 0.0 | 2.0 | 0.00 | 0.02 | 0.02 | 96 | 1011.9 |
| 20260505113603 | 45 | 59 | 0.0 | 2.0 | 0.00 | 0.02 | 0.02 | 96 | 1011.8 |
| 20260505113404 | 45 | 56 | 0.0 | 2.0 | 0.00 | 0.02 | 0.02 | 96 | 1011.8 |
| 20260505113204 | 45 | 56 | 0.0 | 2.0 | 0.00 | 0.02 | 0.02 | 96 | 1011.9 |
| 20260505113004 | 45 | 65 | 0.0 | 2.0 | 0.00 | 0.02 | 0.02 | 96 | 1011.9 |
| 20260505112803 | 45 | 46 | 0.0 | 2.0 | 0.00 | 0.02 | 0.02 | 96 | 1011.9 |
| 20260505112625 | 45 | 47 | 0.0 | 2.0 | 0.00 | 0.02 | 0.02 | 96 | 1011.8 |
| 20260505112404 | 45 | 0 | 0.0 | 0.0 | 0.00 | 0.02 | 0.02 | 96 | 1011.8 |
| 20260505112203 | 45 | 0 | 0.0 | 0.0 | 0.00 | 0.02 | 0.02 | 96 | 1011.8 |
| 20260505112004 | 45 | 0 | 0.0 | 0.0 | 0.00 | 0.02 | 0.02 | 96 | 1011.9 |
| 20260505111804 | 45 | 0 | 0.0 | 0.0 | 0.00 | 0.02 | 0.02 | 96 | 1012.0 |
| 20260505111604 | 45 | 0 | 0.0 | 0.0 | 0.00 | 0.02 | 0.02 | 96 | 1012.0 |
| 20260505111404 | 45 | 0 | 0.0 | 0.0 | 0.00 | 0.02 | 0.02 | 96 | 1012.0 |
| 20260505111204 | 45 | 0 | 0.0 | 0.0 | 0.00 | 0.02 | 0.02 | 96 | 1012.0 |
| 20260505111003 | 45 | 0 | 0.0 | 0.0 | 0.00 | 0.02 | 0.02 | 96 | 1012.0 |
| 20260505110804 | 45 | 0 | 0.0 | 0.0 | 0.00 | 0.02 | 0.02 | 96 | 1012.0 |
| 20260505110603 | 45 | 0 | 0.0 | 0.0 | 0.00 | 0.02 | 0.02 | 96 | 1012.0 |
| 20260505110403 | 45 | 0 | 0.0 | 0.0 | 0.00 | 0.02 | 0.02 | 96 | 1012.1 |
| 20260505110204 | 45 | 0 | 0.0 | 0.0 | 0.00 | 0.02 | 0.02 | 95 | 1012.1 |
| 20260505102204 | 45 | 297 | 0.0 | 2.0 | 0.00 | 0.02 | 0.02 | 95 | 1011.9 |
| 20260505102004 | 46 | 297 | 0.0 | 2.0 | 0.00 | 0.02 | 0.02 | 96 | 1011.9 |
| 20260505101804 | 46 | 297 | 0.0 | 2.0 | 0.00 | 0.02 | 0.02 | 96 | 1011.8 |
| 20260505101604 | 46 | 297 | 0.0 | 2.0 | 0.00 | 0.02 | 0.02 | 96 | 1011.9 |
| 20260505101403 | 46 | 0 | 0.0 | 0.0 | 0.00 | 0.02 | 0.02 | 96 | 1011.9 |
| 20260505101224 | 46 | 0 | 0.0 | 0.0 | 0.00 | 0.02 | 0.02 | 96 | 1011.9 |
| 20260505101003 | 46 | 0 | 0.0 | 0.0 | 0.00 | 0.02 | 0.02 | 96 | 1011.9 |
| 20260505100804 | 46 | 0 | 0.0 | 0.0 | 0.00 | 0.02 | 0.02 | 96 | 1011.9 |
| 20260505100603 | 46 | 0 | 0.0 | 0.0 | 0.00 | 0.02 | 0.02 | 96 | 1011.9 |
| 20260505100424 | 46 | 0 | 0.0 | 0.0 | 0.00 | 0.02 | 0.02 | 96 | 1012.0 |
| 20260505100204 | 46 | 0 | 0.0 | 0.0 | 0.00 | 0.02 | 0.02 | 96 | 1012.0 |
| 20260505100004 | 46 | 0 | 0.0 | 0.0 | 0.00 | 0.02 | 0.02 | 96 | 1012.0 |
| 20260505095803 | 46 | 0 | 0.0 | 0.0 | 0.00 | 0.02 | 0.02 | 96 | 1012.0 |
| 20260505095603 | 46 | 0 | 0.0 | 0.0 | 0.00 | 0.02 | 0.02 | 96 | 1012.0 |
| 20260505095404 | 46 | 0 | 0.0 | 0.0 | 0.00 | 0.02 | 0.02 | 96 | 1012.1 |
| 20260505095204 | 46 | 0 | 0.0 | 0.0 | 0.00 | 0.02 | 0.02 | 96 | 1012.1 |
| 20260505095003 | 46 | 0 | 0.0 | 0.0 | 0.00 | 0.02 | 0.02 | 96 | 1012.1 |
| 20260505094824 | 46 | 0 | 0.0 | 0.0 | 0.00 | 0.02 | 0.02 | 96 | 1012.1 |
| 20260505094624 | 46 | 0 | 0.0 | 0.0 | 0.00 | 0.02 | 0.02 | 95 | 1012.1 |
| 20260505094404 | 46 | 0 | 0.0 | 0.0 | 0.00 | 0.02 | 0.02 | 95 | 1012.2 |
| 20260505094203 | 46 | 0 | 0.0 | 0.0 | 0.00 | 0.02 | 0.02 | 95 | 1012.2 |
| 20260505094004 | 46 | 0 | 0.0 | 0.0 | 0.00 | 0.02 | 0.02 | 95 | 1012.2 |
| 20260505093825 | 46 | 0 | 0.0 | 0.0 | 0.01 | 0.02 | 0.02 | 95 | 1012.2 |
| 20260505093604 | 46 | 0 | 0.0 | 0.0 | 0.01 | 0.02 | 0.02 | 95 | 1012.2 |
| 20260505093404 | 46 | 0 | 0.0 | 0.0 | 0.01 | 0.02 | 0.02 | 95 | 1012.2 |
| 20260505093203 | 46 | 0 | 0.0 | 0.0 | 0.01 | 0.02 | 0.02 | 95 | 1012.2 |
| 20260505093004 | 46 | 0 | 0.0 | 0.0 | 0.01 | 0.02 | 0.02 | 95 | 1012.3 |
| 20260505092803 | 46 | 0 | 0.0 | 0.0 | 0.01 | 0.02 | 0.02 | 95 | 1012.4 |
| 20260505092604 | 46 | 0 | 0.0 | 0.0 | 0.01 | 0.02 | 0.02 | 95 | 1012.4 |
| 20260505092403 | 46 | 0 | 0.0 | 0.0 | 0.01 | 0.02 | 0.02 | 95 | 1012.4 |
| 20260505092224 | 46 | 0 | 0.0 | 0.0 | 0.01 | 0.02 | 0.02 | 95 | 1012.4 |
| 20260505092025 | 46 | 0 | 0.0 | 0.0 | 0.01 | 0.02 | 0.02 | 95 | 1012.4 |
| 20260505091825 | 46 | 0 | 0.0 | 0.0 | 0.01 | 0.02 | 0.02 | 95 | 1012.4 |
| 20260505091603 | 46 | 0 | 0.0 | 0.0 | 0.01 | 0.02 | 0.02 | 95 | 1012.4 |
| 20260505091425 | 46 | 0 | 0.0 | 0.0 | 0.01 | 0.02 | 0.02 | 95 | 1012.5 |
| 20260505091204 | 46 | 0 | 0.0 | 0.0 | 0.01 | 0.02 | 0.02 | 95 | 1012.6 |
| 20260505091004 | 46 | 0 | 0.0 | 0.0 | 0.01 | 0.02 | 0.02 | 95 | 1012.5 |
| 20260505090803 | 46 | 0 | 0.0 | 0.0 | 0.02 | 0.02 | 0.02 | 95 | 1012.6 |
| 20260505090603 | 46 | 0 | 0.0 | 0.0 | 0.02 | 0.02 | 0.02 | 95 | 1012.6 |
| 20260505090404 | 46 | 0 | 0.0 | 0.0 | 0.02 | 0.02 | 0.02 | 95 | 1012.7 |
| 20260505090203 | 46 | 0 | 0.0 | 0.0 | 0.02 | 0.02 | 0.02 | 95 | 1012.7 |
| 20260505090004 | 46 | 0 | 0.0 | 0.0 | 0.02 | 0.02 | 0.02 | 95 | 1012.7 |
| 20260505085803 | 46 | 0 | 0.0 | 0.0 | 0.02 | 0.02 | 0.02 | 95 | 1012.7 |
| 20260505085604 | 46 | 0 | 0.0 | 0.0 | 0.02 | 0.02 | 0.02 | 95 | 1012.7 |
| 20260505085404 | 46 | 0 | 0.0 | 0.0 | 0.02 | 0.02 | 0.02 | 95 | 1012.7 |
| 20260505085203 | 46 | 0 | 0.0 | 0.0 | 0.02 | 0.02 | 0.02 | 95 | 1012.7 |
| 20260505085004 | 46 | 0 | 0.0 | 0.0 | 0.02 | 0.02 | 0.02 | 95 | 1012.6 |
| 20260505084803 | 46 | 0 | 0.0 | 0.0 | 0.02 | 0.02 | 0.02 | 95 | 1012.6 |
| 20260505084603 | 46 | 0 | 0.0 | 0.0 | 0.02 | 0.02 | 0.02 | 95 | 1012.6 |
| 20260505084403 | 46 | 0 | 0.0 | 0.0 | 0.02 | 0.02 | 0.02 | 95 | 1012.8 |
| 20260505084203 | 46 | 0 | 0.0 | 0.0 | 0.02 | 0.02 | 0.02 | 95 | 1012.8 |
| 20260505084003 | 46 | 0 | 0.0 | 0.0 | 0.02 | 0.02 | 0.02 | 95 | 1012.8 |
| 20260505083825 | 46 | 0 | 0.0 | 0.0 | 0.02 | 0.02 | 0.02 | 95 | 1012.9 |
| 20260505083604 | 46 | 0 | 0.0 | 0.0 | 0.02 | 0.02 | 0.02 | 94 | 1013.0 |
| 20260505083403 | 46 | 0 | 0.0 | 0.0 | 0.02 | 0.02 | 0.02 | 94 | 1013.1 |
| 20260505083203 | 46 | 0 | 0.0 | 0.0 | 0.02 | 0.02 | 0.02 | 94 | 1013.1 |
| 20260505083005 | 46 | 0 | 0.0 | 0.0 | 0.02 | 0.02 | 0.02 | 94 | 1013.0 |
| 20260505082804 | 46 | 0 | 0.0 | 0.0 | 0.02 | 0.02 | 0.02 | 94 | 1013.1 |
| 20260505082603 | 46 | 0 | 0.0 | 0.0 | 0.02 | 0.02 | 0.02 | 94 | 1013.1 |
| 20260505082403 | 46 | 0 | 0.0 | 0.0 | 0.02 | 0.02 | 0.02 | 94 | 1013.1 |
| 20260505082204 | 46 | 0 | 0.0 | 0.0 | 0.02 | 0.02 | 0.02 | 94 | 1013.1 |
| 20260505082004 | 46 | 0 | 0.0 | 0.0 | 0.02 | 0.02 | 0.02 | 94 | 1013.2 |
| 20260505081804 | 46 | 0 | 0.0 | 0.0 | 0.02 | 0.02 | 0.02 | 94 | 1013.2 |
| 20260505081604 | 46 | 0 | 0.0 | 0.0 | 0.02 | 0.02 | 0.02 | 94 | 1013.2 |
| 20260505081404 | 46 | 0 | 0.0 | 0.0 | 0.02 | 0.02 | 0.02 | 94 | 1013.2 |
| 20260505081203 | 46 | 0 | 0.0 | 0.0 | 0.02 | 0.02 | 0.02 | 94 | 1013.3 |
| 20260505081004 | 46 | 0 | 0.0 | 0.0 | 0.02 | 0.02 | 0.02 | 94 | 1013.3 |
| 20260505080803 | 46 | 0 | 0.0 | 0.0 | 0.01 | 0.01 | 0.01 | 93 | 1013.3 |
| 20260505080603 | 46 | 0 | 0.0 | 0.0 | 0.01 | 0.01 | 0.01 | 93 | 1013.3 |
| 20260505080403 | 46 | 0 | 0.0 | 0.0 | 0.01 | 0.01 | 0.01 | 93 | 1013.3 |
| 20260505080204 | 46 | 0 | 0.0 | 0.0 | 0.01 | 0.01 | 0.01 | 93 | 1013.3 |
| 20260505080025 | 46 | 0 | 0.0 | 0.0 | 0.01 | 0.01 | 0.01 | 93 | 1013.4 |
| 20260505075804 | 46 | 0 | 0.0 | 0.0 | 0.01 | 0.01 | 0.01 | 93 | 1013.4 |
| 20260505075603 | 46 | 0 | 0.0 | 0.0 | 0.01 | 0.01 | 0.01 | 93 | 1013.4 |
| 20260505075425 | 46 | 0 | 0.0 | 0.0 | 0.01 | 0.01 | 0.01 | 93 | 1013.4 |
| 20260505075225 | 46 | 0 | 0.0 | 0.0 | 0.01 | 0.01 | 0.01 | 93 | 1013.4 |
| 20260505075003 | 46 | 0 | 0.0 | 0.0 | 0.01 | 0.01 | 0.01 | 92 | 1013.4 |
| 20260505074804 | 46 | 0 | 0.0 | 0.0 | 0.01 | 0.01 | 0.01 | 92 | 1013.4 |
| 20260505074603 | 46 | 0 | 0.0 | 0.0 | 0.01 | 0.01 | 0.01 | 92 | 1013.4 |
| 20260505074404 | 47 | 0 | 0.0 | 0.0 | 0.01 | 0.01 | 0.01 | 92 | 1013.4 |
| 20260505074224 | 47 | 0 | 0.0 | 0.0 | 0.01 | 0.01 | 0.01 | 92 | 1013.4 |
| 20260505074003 | 47 | 0 | 0.0 | 0.0 | 0.00 | 0.00 | 0.00 | 92 | 1013.4 |
| 20260505073825 | 47 | 0 | 0.0 | 0.0 | 0.00 | 0.00 | 0.00 | 92 | 1013.4 |
| 20260505073603 | 47 | 0 | 0.0 | 0.0 | 0.00 | 0.00 | 0.00 | 92 | 1013.4 |
| 20260505073404 | 47 | 0 | 0.0 | 0.0 | 0.00 | 0.00 | 0.00 | 92 | 1013.4 |
| 20260505073203 | 47 | 0 | 0.0 | 0.0 | 0.00 | 0.00 | 0.00 | 92 | 1013.4 |
| 20260505073025 | 47 | 299 | 0.0 | 3.0 | 0.00 | 0.00 | 0.00 | 91 | 1013.4 |
| 20260505072825 | 47 | 299 | 0.0 | 4.0 | 0.00 | 0.00 | 0.00 | 91 | 1013.5 |
| 20260505072603 | 47 | 299 | 0.0 | 4.0 | 0.00 | 0.00 | 0.00 | 91 | 1013.5 |
| 20260505072403 | 47 | 299 | 0.0 | 4.0 | 0.00 | 0.00 | 0.00 | 91 | 1013.5 |
| 20260505072204 | 47 | 299 | 0.0 | 4.0 | 0.00 | 0.00 | 0.00 | 91 | 1013.5 |
| 20260505072004 | 47 | 305 | 0.0 | 4.0 | 0.00 | 0.00 | 0.00 | 91 | 1013.5 |
| 20260505071803 | 47 | 0 | 0.0 | 0.0 | 0.00 | 0.00 | 0.00 | 90 | 1013.5 |
| 20260505071603 | 47 | 291 | 0.0 | 4.0 | 0.00 | 0.00 | 0.00 | 90 | 1013.4 |
| 20260505071404 | 47 | 288 | 1.0 | 4.0 | 0.00 | 0.00 | 0.00 | 90 | 1013.4 |
| 20260505071203 | 47 | 290 | 1.0 | 4.0 | 0.00 | 0.00 | 0.00 | 90 | 1013.4 |
| 20260505071004 | 47 | 292 | 1.0 | 5.0 | 0.00 | 0.00 | 0.00 | 90 | 1013.4 |
| 20260505070803 | 47 | 292 | 1.0 | 5.0 | 0.00 | 0.00 | 0.00 | 90 | 1013.5 |
| 20260505070603 | 47 | 290 | 1.0 | 5.0 | 0.00 | 0.00 | 0.00 | 90 | 1013.5 |
| 20260505070403 | 47 | 294 | 0.0 | 5.0 | 0.00 | 0.00 | 0.00 | 90 | 1013.5 |
| 20260505070204 | 47 | 293 | 0.0 | 5.0 | 0.00 | 0.00 | 0.00 | 90 | 1013.4 |
| 20260505070025 | 47 | 286 | 0.0 | 3.0 | 0.00 | 0.00 | 0.00 | 91 | 1013.5 |
| 20260505065803 | 47 | 287 | 0.0 | 4.0 | 0.00 | 0.00 | 0.00 | 91 | 1013.5 |
| 20260505065603 | 47 | 289 | 0.0 | 4.0 | 0.00 | 0.00 | 0.00 | 91 | 1013.4 |
| 20260505065404 | 47 | 289 | 0.0 | 4.0 | 0.00 | 0.00 | 0.00 | 90 | 1013.4 |
| 20260505065224 | 47 | 285 | 0.0 | 4.0 | 0.00 | 0.00 | 0.00 | 90 | 1013.4 |
| 20260505065004 | 47 | 281 | 0.0 | 1.0 | 0.00 | 0.00 | 0.00 | 90 | 1013.5 |
| 20260505064803 | 47 | 0 | 0.0 | 0.0 | 0.00 | 0.00 | 0.00 | 90 | 1013.5 |
| 20260505064624 | 47 | 0 | 0.0 | 0.0 | 0.00 | 0.00 | 0.00 | 90 | 1013.5 |
| 20260505064404 | 47 | 0 | 0.0 | 0.0 | 0.00 | 0.00 | 0.00 | 90 | 1013.5 |
| 20260505064203 | 47 | 0 | 0.0 | 0.0 | 0.00 | 0.00 | 0.00 | 90 | 1013.5 |
| 20260505064003 | 47 | 0 | 0.0 | 0.0 | 0.00 | 0.00 | 0.00 | 89 | 1013.5 |
| 20260505063803 | 47 | 0 | 0.0 | 0.0 | 0.00 | 0.00 | 0.00 | 89 | 1013.5 |
| 20260505063604 | 47 | 0 | 0.0 | 0.0 | 0.00 | 0.00 | 0.00 | 89 | 1013.5 |
| 20260505063404 | 47 | 0 | 0.0 | 0.0 | 0.00 | 0.00 | 0.00 | 89 | 1013.5 |
| 20260505063204 | 47 | 0 | 0.0 | 0.0 | 0.00 | 0.00 | 0.00 | 88 | 1013.5 |
| 20260505063004 | 47 | 0 | 0.0 | 0.0 | 0.00 | 0.00 | 0.00 | 88 | 1013.5 |
| 20260505062804 | 47 | 0 | 0.0 | 0.0 | 0.00 | 0.00 | 0.00 | 88 | 1013.6 |
| 20260505062603 | 47 | 0 | 0.0 | 0.0 | 0.00 | 0.00 | 0.00 | 88 | 1013.5 |
| 20260505062403 | 47 | 0 | 0.0 | 0.0 | 0.00 | 0.00 | 0.00 | 88 | 1013.6 |
| 20260505062225 | 47 | 0 | 0.0 | 0.0 | 0.00 | 0.00 | 0.00 | 88 | 1013.6 |
| 20260505062004 | 47 | 0 | 0.0 | 0.0 | 0.00 | 0.00 | 0.00 | 87 | 1013.6 |
| 20260505061803 | 47 | 264 | 0.0 | 1.0 | 0.00 | 0.00 | 0.00 | 87 | 1013.6 |
| 20260505061604 | 47 | 351 | 0.0 | 4.0 | 0.00 | 0.00 | 0.00 | 87 | 1013.7 |
| 20260505061403 | 47 | 351 | 0.0 | 4.0 | 0.00 | 0.00 | 0.00 | 86 | 1013.7 |
| 20260505061225 | 47 | 351 | 0.0 | 4.0 | 0.00 | 0.00 | 0.00 | 86 | 1013.7 |
| 20260505061004 | 48 | 351 | 0.0 | 4.0 | 0.00 | 0.00 | 0.00 | 85 | 1013.7 |
| 20260505060803 | 48 | 334 | 0.0 | 4.0 | 0.00 | 0.00 | 0.00 | 85 | 1013.7 |
| 20260505060624 | 48 | 315 | 0.0 | 4.0 | 0.00 | 0.00 | 0.00 | 85 | 1013.7 |
| 20260505060403 | 48 | 302 | 0.0 | 3.0 | 0.00 | 0.00 | 0.00 | 85 | 1013.7 |
| 20260505060203 | 48 | 297 | 1.0 | 4.0 | 0.00 | 0.00 | 0.00 | 85 | 1013.8 |
| 20260505060003 | 48 | 297 | 1.0 | 4.0 | 0.00 | 0.00 | 0.00 | 84 | 1013.8 |
| 20260505055803 | 48 | 302 | 1.0 | 5.0 | 0.00 | 0.00 | 0.00 | 85 | 1013.7 |
| 20260505055603 | 48 | 302 | 1.0 | 5.0 | 0.00 | 0.00 | 0.00 | 85 | 1013.9 |
| 20260505055403 | 48 | 298 | 2.0 | 5.0 | 0.00 | 0.00 | 0.00 | 85 | 1013.8 |
| 20260505055204 | 48 | 297 | 1.0 | 5.0 | 0.00 | 0.00 | 0.00 | 85 | 1013.9 |
| 20260505055003 | 48 | 297 | 1.0 | 5.0 | 0.00 | 0.00 | 0.00 | 85 | 1013.9 |
| 20260505054803 | 48 | 292 | 1.0 | 4.0 | 0.00 | 0.00 | 0.00 | 85 | 1013.8 |
| 20260505054624 | 48 | 292 | 1.0 | 4.0 | 0.00 | 0.00 | 0.00 | 85 | 1013.8 |
| 20260505054424 | 48 | 295 | 0.0 | 3.0 | 0.00 | 0.00 | 0.00 | 85 | 1013.9 |
| 20260505054203 | 48 | 334 | 0.0 | 2.0 | 0.00 | 0.00 | 0.00 | 85 | 1014.0 |
| 20260505054003 | 48 | 329 | 0.0 | 4.0 | 0.00 | 0.00 | 0.00 | 85 | 1013.9 |
| 20260505053825 | 48 | 325 | 0.0 | 4.0 | 0.00 | 0.00 | 0.00 | 85 | 1014.0 |
| 20260505053603 | 48 | 308 | 1.0 | 5.0 | 0.00 | 0.00 | 0.00 | 85 | 1014.0 |
| 20260505053404 | 48 | 308 | 1.0 | 5.0 | 0.00 | 0.00 | 0.00 | 85 | 1014.0 |
| 20260505053204 | 48 | 308 | 1.0 | 5.0 | 0.00 | 0.00 | 0.00 | 85 | 1014.0 |
| 20260505053004 | 48 | 306 | 1.0 | 5.0 | 0.00 | 0.00 | 0.00 | 85 | 1014.0 |
| 20260505052804 | 48 | 305 | 1.0 | 5.0 | 0.00 | 0.00 | 0.00 | 85 | 1014.0 |
| 20260505052604 | 49 | 312 | 0.0 | 3.0 | 0.00 | 0.00 | 0.00 | 85 | 1014.0 |
| 20260505052425 | 49 | 312 | 0.0 | 3.0 | 0.00 | 0.00 | 0.00 | 85 | 1014.0 |
| 20260505052203 | 49 | 311 | 0.0 | 3.0 | 0.00 | 0.00 | 0.00 | 85 | 1014.0 |
| 20260505052004 | 49 | 314 | 0.0 | 6.0 | 0.00 | 0.00 | 0.00 | 85 | 1014.0 |
| 20260505051803 | 49 | 314 | 0.0 | 6.0 | 0.00 | 0.00 | 0.00 | 85 | 1014.0 |
| 20260505051603 | 49 | 314 | 0.0 | 6.0 | 0.00 | 0.00 | 0.00 | 85 | 1014.0 |
| 20260505051403 | 49 | 314 | 0.0 | 6.0 | 0.00 | 0.00 | 0.00 | 84 | 1014.0 |
| 20260505051203 | 49 | 309 | 0.0 | 6.0 | 0.00 | 0.00 | 0.00 | 84 | 1014.0 |